Retour au catalogue

IRIDIUM 102

ActifCommunicationsPO
NORAD 41920·PAYLOAD·🇺🇸 United States

Lancé Jan 14, 2017 depuis Vandenberg Space Force Base

Loading…

Prochains Passages (prochaines 24 heures)

TLE

FraisSource: CelesTrak SupGP

Époque: Sep 14, 2026, 09:11 UTC

1 41920C 17003D   26257.38298611  .00001595  00000+0  57024-3 0  2574
2 41920  86.3946  51.1153 0002086  93.6273  19.2590 14.34218821    17

Suivez IRIDIUM 102 en temps réel avec AllMySat

Download on the App Store